Flag for Uruguay Weather past 2 weeks in Maldonado, Uruguay

Now
63 °F

Passing clouds.


Feels Like: 63 °F
Forecast: 51 / 63 °F
Wind: 14 mph from South

Location: Capitan Corbeta

Current Time: May 28, 2015 at 1:36:18 PM

Latest Report: May 28, 2015 at 1:00 PM


Visibility: N/A

Pressure: 30.15 "Hg

Humidity: 56%

Dew point: 46 °F

Location of MaldonadoLocation

Historic Weather in Maldonado — Graph

°F

Maldonado temperature yesterday

Maximum temperature yesterday: 63 °F (at 12:00 PM)
Minimum temperature yesterday: 55 °F (at 12:00 AM)
Average temperature yesterday: 58 °F

Past Weeks' High & Low Weather Summary

 TemperatureHumidityPressure
High82 °F (May 21, 2:00 PM)100% (May 15, 6:00 AM)30.24 "Hg (May 15, 6:00 AM)
Low41 °F (May 25, 4:00 AM)42% (May 21, 2:00 PM)29.65 "Hg (May 23, 3:00 PM)
Average62 °F77%30.08 "Hg
* Reported May 13 12:00 Noon — May 28 12:00 Noon, Maldonado, Weather by CustomWeather, © 2015

Note: Actual official high and low records may vary slightly from our data, if they occured in-between our weather recording intervals... More about our weather records

Advertising

Maldonado weather history for previous 24 hours

 ConditionsComfort  
Time TempWeatherWind HumidityBarometerVisibility
12:00 PM
Thu, May 28
61 °FPassing clouds.9 mph59%30.18 "HgN/A
11:00 AM61 °FPassing clouds.10 mph63%30.18 "HgN/A
10:00 AM55 °FSleet. Light fog.3 mph88%30.18 "HgN/A
9:00 AM48 °FSleet. Light fog.3 mph87%30.18 "HgN/A
8:00 AM41 °FSunny.3 mph87%30.18 "Hg10 mi
7:00 AM41 °FSunny.No wind87%30.18 "Hg10 mi
6:00 AM43 °FClear.No wind87%30.18 "Hg10 mi
5:00 AM50 °FClear.3 mph82%30.15 "Hg10 mi
1:00 AM55 °FClear.5 mph77%30.18 "Hg10 mi
12:00 AM55 °FClear.5 mph77%30.21 "Hg10 mi
11:00 PM
Wed, May 27
55 °FPassing clouds.5 mph77%30.21 "HgN/A
10:00 PM57 °FPassing clouds.3 mph77%30.21 "HgN/A
9:00 PM57 °FPassing clouds.5 mph72%30.21 "HgN/A
8:00 PM57 °FPassing clouds.5 mph72%30.21 "HgN/A
7:00 PM57 °FPartly cloudy.7 mph72%30.18 "HgN/A
6:00 PM59 °FPartly cloudy.7 mph68%30.18 "HgN/A
5:00 PM61 °FPartly cloudy.9 mph68%30.18 "HgN/A
4:00 PM61 °FPartly sunny.16 mph68%30.18 "HgN/A
3:00 PM61 °FSunny.10 mph68%30.18 "Hg10 mi
1:00 PM61 °FOvercast.13 mph68%30.18 "HgN/A
Weather by CustomWeather, © 2015

See weather overviewHow to use our weather pages